Regional Weather Roundup
Issued by NWS

Home | Current Version | Previous Version | Graphics & Text | Print | Product List | Glossary On
Versions: 1 2 3 4 5 6 7 8 9 10 11 12 13 14 15 16 17 18 19 20 21 22 23 24 25 26 27 28 29 30 31 32 33 34 35 36 37 38 39 40 41 42 43 44 45 46 47 48 49 50
000
ASUS43 KIND 110559
RWRIN

WEATHER ROUNDUP FOR INDIANA
NATIONAL WEATHER SERVICE INDIANAPOLIS IN
200 AM EDT FRI JUL 11 2014

NOTE: "FAIR" INDICATES FEW OR NO CLOUDS BELOW 12,000 FEET WITH NO
SIGNIFICANT WEATHER AND/OR OBSTRUCTIONS TO VISIBILITY.

* - STATION DOES NOT REPORT WEATHER SUCH AS PRECIPITATION OR FOG.

+ - STATION NOT QUALITY CONTROLLED BY THE NATIONAL WEATHER SERVICE.
    USE DATA WITH CAUTION...ESPECIALLY DEWPOINT AND RELATIVE
    HUMIDITY OBSERVATIONS.

INZ001>003-010>013-019-020-110700-
NORTHWEST INDIANA

CITY           SKY/WX    TMP DP  RH WIND       PRES   REMARKS
MONTICELLO +   CLEAR     57  54  88 CALM      30.19R
RENSSELAER +   CLEAR     52  52 100 CALM      30.19S
VALPARAISO     CLEAR     54  50  86 NE3       30.20S
6HR MIN TEMP:  53; 6HR MAX TEMP:  74;


$$

LMZ046-743>745-110700-
SOUTHERN LAKE MICHIGAN

STATION/POSITION TIME  TEMP WIND        PRES
                       AIR  DIR/SP/G
                 (UTC) (F)  (DEG/KT/KT) (MB)
MICHIGAN CITY    0500   63  100/  6/  7   N/A

$$

INZ004-005-014>016-021>024-110700-
NORTH CENTRAL INDIANA

CITY           SKY/WX    TMP DP  RH WIND       PRES   REMARKS
GOSHEN         CLEAR     58  55  90 CALM      30.20S
6HR MIN TEMP:  57; 6HR MAX TEMP:  75;

SOUTH BEND     CLEAR     60  53  77 CALM      30.20F
6HR MIN TEMP:  59; 6HR MAX TEMP:  74;

WARSAW +       CLEAR     55  54  94 CALM      30.21R

$$

INZ006>009-017-018-025>027-110700-
NORTHEAST INDIANA

CITY           SKY/WX    TMP DP  RH WIND       PRES   REMARKS
ANGOLA *+      CLEAR     57  57 100 CALM      30.21S
FORT WAYNE     CLEAR     60  55  83 CALM      30.20S
6HR MIN TEMP:  59; 6HR MAX TEMP:  75;


$$

INZ028-029-035-036-043>045-051>053-110700-
WEST CENTRAL INDIANA

CITY           SKY/WX    TMP DP  RH WIND       PRES   REMARKS
GREENCASTLE +  CLEAR     57  54  88 CALM      30.20R
LAFAYETTE      CLEAR     57  55  93 CALM      30.19R
6HR MIN TEMP:  57; 6HR MAX TEMP:  75;

TERRE HAUTE    CLEAR     61  57  87 CALM      30.18S
6HR MIN TEMP:  59; 6HR MAX TEMP:  76;


$$

INZ030>032-037>040-046>048-054>057-064-065-110700-
CENTRAL INDIANA

CITY           SKY/WX    TMP DP  RH WIND       PRES   REMARKS
INDIANAPOLIS   CLEAR     65  53  65 NE5       30.19R
6HR MIN TEMP:  65; 6HR MAX TEMP:  76;

-EAGLE CREEK   CLEAR     62  54  74 CALM      30.19S
6HR MIN TEMP:  61; 6HR MAX TEMP:  76;

KOKOMO *+      CLEAR     55  52  88 CALM      30.20S
MT COMFORT *+  CLEAR     57 N/A N/A CALM      30.20S
SHELBYVILLE    CLEAR     60  55  83 N3        30.19R
6HR MIN TEMP:  60; 6HR MAX TEMP:  78;


$$

INZ033-034-041-042-049-050-058-059-110700-
EAST CENTRAL INDIANA

CITY           SKY/WX    TMP DP  RH WIND       PRES   REMARKS
MUNCIE         CLEAR     60  54  80 CALM      30.20R
6HR MIN TEMP:  59; 6HR MAX TEMP:  75;


$$

INZ060-061-067>069-081>083-085>088-110700-
SOUTHWEST INDIANA

CITY           SKY/WX    TMP DP  RH WIND       PRES   REMARKS
EVANSVILLE     CLEAR     70  59  68 N5        30.15S
6HR MIN TEMP:  70; 6HR MAX TEMP:  84;

HUNTINGBURG *+ CLEAR     63  57  82 NE3       30.16S
6HR MIN TEMP:  63; 6HR MAX TEMP:  81;


$$

INZ062-063-066-070>080-084-089>092-110700-
SOUTH CENTRAL AND SOUTHEAST INDIANA

CITY           SKY/WX    TMP DP  RH WIND       PRES   REMARKS
BLOOMINGTON    CLEAR     59  56  89 CALM      30.19R
6HR MIN TEMP:  59; 6HR MAX TEMP:  78;


$$




USA.gov is the U.S. government's official web portal to all federal, state and local government web resources and services.